Total_Precipitation_Accumulation
0.19 0.82 2.07 3.98 7.06 3.29 3.07 2.22 2.35 1.42 0.76 0.47 0.32 0.39 0.65 1.07 1.84 2.97 0.75 0.47 0.23 0.33 0.98 3.43 3.45 2.45 2.22 2.50 2.39 2.07 1.93 1.90 1.84 1.88 2.03 1.91 2.75 3.49 1.88 1.67 1.59 1.93 1.97 2.04 2.20 2.28 1.99 1.47 1.13
0.73 1.83 3.09 7.97 5.86 3.78 4.21 2.56 2.67 1.46 0.67 0.53 0.36 0.53 0.66 0.63 0.21 0.15 0.37 0.34 0.10 0.16 0.79 2.16 3.44 2.61 2.03 2.25 2.36 2.14 2.13 1.94 2.25 2.21 2.15 2.35 3.27 3.36 2.01 1.44 1.59 1.97 2.01 2.17 2.06 1.43 1.13 1.09 1.28
1.41 2.66 7.19 8.50 3.63 3.09 2.59 2.92 3.13 1.30 0.62 0.46 0.47 0.62 0.53 0.38 0.12 0.15 0.20 0.17 0.17 0.23 0.67 1.71 2.69 1.90 1.87 2.69 2.50 2.09 2.09 2.08 2.71 3.00 3.25 3.63 2.71 2.34 1.45 1.46 1.55 2.00 1.90 1.84 1.93 1.12 1.01 1.24 1.70
2.47 7.31 6.78 5.16 4.28 2.96 1.58 1.66 1.63 2.09 1.16 0.83 0.54 0.49 0.30 0.28 0.05 0.08 0.20 0.27 0.25 0.52 0.76 1.53 2.64 1.95 1.91 2.88 2.44 2.21 2.02 2.12 2.68 2.90 3.00 2.68 2.10 1.76 1.89 2.50 2.00 1.61 1.57 1.52 0.88 0.66 0.83 0.94 1.22
1.74 6.34 7.38 5.89 3.82 1.95 1.28 1.49 2.83 3.66 2.08 1.52 0.57 0.62 0.30 0.23 0.07 0.05 0.16 0.28 0.27 0.86 0.86 1.86 3.09 3.33 3.61 4.14 3.34 2.60 2.56 2.27 2.20 2.21 2.38 1.91 1.44 1.61 2.43 2.43 1.69 1.36 1.01 0.76 0.47 0.42 0.79 0.99 1.42
3.73 4.63 5.57 4.96 2.40 1.22 1.59 1.88 2.21 2.09 1.40 0.62 0.45 0.36 0.40 0.27 0.12 0.12 0.12 0.23 0.74 0.64 0.71 2.12 3.34 4.02 4.61 5.01 3.87 3.06 3.03 2.47 1.96 1.72 1.91 1.71 2.25 2.66 2.59 2.15 1.11 0.73 0.49 0.40 0.31 0.71 1.02 1.27 1.26
2.83 5.17 4.75 3.10 2.49 2.50 1.61 1.54 1.49 1.60 1.04 0.60 0.44 0.57 0.60 0.39 0.18 0.15 0.21 0.33 0.55 0.78 0.85 1.73 2.98 4.19 6.75 5.60 5.66 5.32 5.82 2.72 1.75 1.56 1.67 1.67 1.78 2.05 2.12 1.27 0.79 0.58 0.49 0.46 0.62 0.73 0.92 1.21 0.94
1.78 4.05 5.64 3.39 1.41 3.11 1.59 1.23 1.36 1.14 0.79 0.32 0.28 0.28 0.31 0.13 0.24 0.35 0.40 0.49 0.78 1.67 1.80 0.98 2.18 4.84 5.47 4.69 6.81 10.42 5.09 2.16 1.69 1.60 2.02 2.13 1.72 1.56 1.43 1.17 0.85 0.49 0.42 0.48 0.67 0.81 0.97 1.11 1.06
2.03 5.86 4.51 2.53 1.06 2.59 1.43 1.30 1.12 0.87 0.37 0.34 0.31 0.13 0.02 0.02 0.08 0.16 0.30 0.64 1.29 1.61 2.08 1.06 1.17 2.88 3.65 3.97 3.84 5.16 3.76 2.40 2.06 2.03 2.78 3.66 2.22 2.45 2.18 1.47 0.96 0.52 0.64 0.73 0.83 0.88 1.14 1.15 0.75
2.66 4.66 2.77 1.26 0.56 1.10 2.06 1.42 1.24 0.98 0.76 0.51 0.57 0.21 0.03 0.04 0.04 0.12 0.19 0.41 0.73 0.84 2.10 1.91 1.25 1.40 1.90 2.12 3.72 4.66 4.12 2.57 2.04 2.55 3.06 3.35 2.30 1.92 1.04 0.76 0.80 0.82 0.98 0.91 1.35 1.19 1.28 1.55 1.82
2.24 3.86 2.00 0.75 0.50 0.83 1.34 1.07 0.75 1.06 1.00 0.45 0.29 0.10 0.01 0.01 0.03 0.13 0.15 0.17 0.29 0.35 0.55 1.02 1.58 1.16 1.34 2.52 2.48 2.73 2.81 1.44 1.47 2.01 2.02 2.71 2.30 1.98 0.95 0.92 1.45 1.44 1.08 1.14 1.76 1.51 2.25 2.46 2.54
1.18 1.00 1.59 1.35 0.92 0.50 1.04 2.22 0.72 1.71 1.80 0.50 0.30 0.05 0.00 0.01 0.03 0.05 0.05 0.17 0.24 0.19 0.42 0.58 0.81 1.10 1.53 1.71 1.76 1.76 1.47 1.14 1.26 1.44 0.92 1.35 1.78 1.24 1.41 1.46 1.52 1.39 1.11 1.70 1.27 1.70 1.41 1.71 2.36
0.75 0.90 1.06 1.21 0.53 0.60 0.74 1.20 0.91 1.14 0.89 0.45 0.29 0.05 0.01 0.01 0.04 0.09 0.10 0.14 0.15 0.12 0.35 0.66 0.67 0.91 1.07 1.56 1.11 1.54 1.14 0.83 0.88 1.14 0.78 1.11 1.24 1.43 1.30 1.09 1.47 1.18 0.98 1.76 1.02 1.67 2.00 1.17 1.13
0.59 0.83 1.23 1.63 1.22 0.92 0.84 0.98 0.68 0.83 0.69 0.45 0.31 0.04 0.02 0.02 0.04 0.04 0.08 0.10 0.14 0.15 0.21 0.56 0.82 0.55 0.76 1.36 1.29 0.85 1.20 0.88 1.06 1.24 0.95 1.12 0.87 1.24 1.34 1.94 1.97 1.71 1.22 1.30 1.78 1.79 2.38 1.60 1.27
0.42 0.86 1.35 1.84 2.11 1.95 1.53 3.09 1.44 0.79 0.62 0.45 0.24 0.13 0.05 0.10 0.12 0.16 0.11 0.12 0.12 0.18 0.22 0.32 0.55 0.64 0.55 0.68 0.68 0.51 0.79 1.20 0.86 0.74 1.02 1.02 1.01 1.45 1.56 1.56 1.67 1.57 1.41 1.61 1.54 1.22 3.07 1.99 1.19
0.79 1.33 2.93 2.90 2.25 2.65 2.21 4.60 2.74 1.56 1.83 0.53 0.47 0.46 0.18 0.79 1.23 0.61 0.43 0.60 0.56 0.51 0.60 0.30 0.35 0.39 0.46 0.46 0.43 0.30 0.31 0.57 0.27 0.42 0.44 0.67 0.98 1.09 1.18 1.19 1.52 1.66 2.07 1.85 2.00 1.99 2.36 2.28 1.28
1.12 1.77 2.09 3.50 2.87 3.18 2.57 4.33 3.12 1.45 1.17 0.87 0.36 0.89 0.31 0.88 1.58 0.77 0.55 0.58 0.66 0.59 0.51 0.41 0.52 0.31 0.44 0.54 0.82 0.43 0.26 0.40 0.38 0.38 0.50 0.44 0.54 0.67 1.31 1.26 1.18 1.24 1.39 1.57 1.72 2.36 2.27 1.72 1.85
1.50 1.72 1.67 2.20 3.46 3.19 2.82 3.18 2.96 1.75 1.40 1.21 0.56 0.56 0.52 0.53 0.86 0.56 0.36 0.67 1.27 0.44 0.25 0.35 0.48 0.56 0.33 0.72 0.84 0.64 0.35 0.31 0.53 0.35 0.63 0.79 0.75 0.79 1.14 1.15 1.75 1.06 1.86 2.56 2.73 2.13 1.78 1.64 1.47
0.61 0.95 1.65 1.90 2.36 3.57 3.10 2.40 2.99 1.82 1.15 1.43 1.03 0.74 0.85 0.89 1.01 0.62 0.37 0.36 0.58 0.64 0.26 0.33 0.54 0.35 0.31 0.49 0.46 0.50 0.49 0.25 0.47 0.59 0.77 1.14 0.78 0.82 1.25 1.57 1.92 1.73 2.29 2.85 1.86 1.75 2.27 2.40 1.47
0.30 0.65 1.71 1.74 2.27 2.17 2.90 2.16 2.30 2.43 1.33 0.97 1.02 1.02 1.27 1.23 0.81 0.56 0.45 0.40 1.22 1.00 0.35 0.31 0.37 0.54 0.49 0.48 0.55 0.91 0.81 0.36 0.46 0.91 1.07 0.91 0.97 1.30 1.88 2.80 1.88 2.32 2.46 2.30 2.12 2.21 2.61 3.18 1.68
0.29 0.39 1.21 2.10 2.01 2.24 2.09 2.80 2.12 2.19 2.14 1.21 1.12 0.73 0.71 0.85 1.45 0.84 0.47 0.41 0.63 0.83 0.33 0.33 0.36 0.40 0.41 0.59 0.68 1.22 1.43 1.67 1.88 1.37 1.54 1.85 2.28 1.08 1.15 1.60 1.91 2.14 2.19 2.06 2.31 1.80 2.55 3.31 2.08
0.47 0.44 1.08 1.92 1.94 2.03 1.67 1.89 2.03 2.08 2.00 2.14 1.41 0.55 0.46 0.37 0.58 0.72 0.44 0.29 0.27 0.32 0.36 0.51 0.63 0.52 0.49 0.62 0.85 1.27 1.58 1.80 1.47 1.44 2.15 1.16 1.59 0.92 0.73 1.04 1.74 1.92 2.64 2.82 2.39 1.89 2.21 2.97 3.41
0.22 0.22 0.43 1.25 1.50 1.33 1.00 1.09 1.42 2.10 1.90 2.03 1.67 0.63 0.52 0.38 0.38 0.44 0.56 0.66 0.53 0.45 0.47 0.52 0.67 0.89 0.81 0.69 1.69 1.42 1.42 1.77 1.76 2.03 2.68 1.96 1.75 1.03 1.07 1.40 1.82 1.78 1.79 2.05 2.21 2.46 2.53 2.18 2.35
0.11 0.25 0.28 0.73 1.55 1.47 0.83 0.71 1.17 1.16 1.23 1.47 1.42 1.14 0.57 0.33 0.40 0.63 0.80 0.82 0.57 0.45 0.32 0.46 0.60 0.85 0.95 0.87 1.14 1.49 1.88 1.85 2.55 2.71 2.79 1.53 1.28 1.15 1.56 1.68 2.07 2.29 2.08 2.44 2.32 2.13 2.01 1.63 1.82
0.11 0.20 0.40 0.79 1.43 1.65 0.56 0.60 0.77 0.38 0.91 1.06 1.06 1.28 0.64 0.47 0.45 0.52 0.66 0.51 0.62 0.85 0.35 0.18 0.42 0.92 1.22 1.15 0.80 0.99 1.43 1.70 2.22 3.04 2.15 1.96 1.96 2.31 1.81 2.33 2.42 2.74 2.95 2.40 2.56 2.31 2.12 2.01 1.58
0.12 0.34 0.71 1.01 0.92 0.60 0.65 0.84 0.60 0.49 0.42 0.45 0.53 0.58 0.94 0.66 0.59 0.67 0.65 0.84 0.72 0.42 0.39 0.53 0.69 1.28 0.94 1.11 0.97 1.13 1.13 1.61 1.88 2.19 2.29 2.41 2.22 2.47 1.78 1.64 2.55 3.11 3.27 2.29 2.07 1.83 1.52 1.16 1.15
0.10 0.28 0.47 0.32 0.27 0.40 0.90 1.04 0.68 0.44 0.43 0.20 0.26 0.35 0.52 0.77 1.00 0.84 0.65 0.85 1.34 1.10 0.98 0.90 1.16 0.69 0.46 0.59 0.88 0.78 0.89 1.12 1.45 2.11 2.60 2.58 3.02 3.04 2.56 2.03 2.15 2.09 1.73 1.53 1.66 1.23 1.08 1.54 1.45
0.07 0.17 0.22 0.17 0.38 1.14 0.74 1.36 1.56 0.64 0.44 0.37 0.34 0.31 0.32 0.78 1.69 1.96 1.52 0.87 1.11 1.66 1.61 1.69 1.69 1.22 0.72 0.34 0.55 0.63 0.61 0.67 0.94 1.44 1.70 2.11 2.50 3.64 3.40 2.79 2.55 2.38 1.68 1.75 1.77 1.11 1.11 1.59 1.13
0.05 0.04 0.14 0.16 0.25 0.67 0.39 0.91 1.38 1.20 0.30 0.21 0.31 0.34 0.37 0.72 1.48 2.80 2.82 2.40 1.53 2.10 1.70 2.77 1.98 1.24 0.97 1.02 0.91 1.06 0.83 0.80 1.66 1.11 1.26 1.72 1.98 2.28 2.52 3.73 2.98 2.79 2.37 2.13 2.41 2.07 2.15 2.04 1.40
0.03 0.02 0.04 0.07 0.23 0.21 0.20 0.36 0.48 0.48 0.26 0.40 0.42 0.43 0.81 1.10 1.07 1.70 2.50 2.67 2.19 2.03 1.63 1.75 2.29 1.60 1.44 1.48 1.72 1.48 1.60 1.47 1.30 1.35 1.32 1.74 2.20 2.44 2.92 3.34 3.18 2.98 2.51 2.86 2.57 2.14 1.90 1.64 1.19